Temp
-21 -22 -21 -19 -19 -18 -18 -18 -18 -17 -17 -18 -17 -15 -15 -15 -16 -15 -16 -15 -14 -14 -14 -14 -14 -14 -13 -13 -13 -13 -13 -13 -12 -12 -12 -12 -12 -12 -12 -12 -12 -13 -13 -13
-23 -23 -21 -20 -20 -20 -20 -20 -18 -18 -18 -18 -17 -16 -16 -16 -16 -16 -15 -16 -15 -14 -15 -14 -14 -14 -14 -14 -13 -13 -13 -13 -13 -13 -13 -13 -13 -13 -13 -13 -13 -13 -13 -13
-23 -23 -22 -22 -22 -22 -21 -19 -18 -19 -19 -19 -18 -17 -16 -16 -16 -16 -16 -15 -16 -15 -14 -15 -15 -15 -15 -14 -14 -14 -14 -13 -13 -13 -13 -13 -13 -13 -13 -13 -13 -13 -13 -13
-24 -23 -24 -23 -22 -23 -22 -21 -19 -21 -21 -20 -20 -18 -17 -16 -17 -17 -15 -15 -15 -16 -15 -15 -15 -15 -16 -16 -15 -14 -14 -14 -14 -14 -13 -14 -14 -13 -14 -13 -13 -13 -14 -13
-24 -24 -25 -24 -22 -23 -23 -22 -23 -22 -23 -22 -22 -21 -16 -17 -16 -16 -15 -15 -16 -16 -16 -15 -16 -16 -16 -16 -16 -15 -14 -14 -14 -14 -14 -14 -14 -14 -14 -14 -14 -14 -14 -14
-25 -25 -24 -24 -24 -25 -24 -24 -24 -23 -23 -23 -21 -21 -17 -18 -16 -16 -16 -16 -17 -16 -17 -17 -16 -16 -16 -16 -16 -15 -15 -15 -15 -15 -15 -15 -14 -14 -14 -14 -14 -14 -14 -14
-26 -25 -25 -24 -24 -24 -24 -24 -24 -24 -24 -24 -22 -23 -18 -17 -17 -16 -16 -17 -17 -17 -17 -17 -17 -16 -16 -16 -16 -16 -16 -16 -15 -15 -15 -15 -14 -14 -14 -14 -14 -15 -15 -15
-27 -26 -25 -24 -23 -24 -24 -24 -24 -24 -24 -23 -23 -24 -19 -18 -18 -18 -17 -17 -17 -17 -18 -18 -17 -17 -16 -16 -16 -16 -16 -16 -16 -15 -15 -15 -15 -15 -15 -15 -15 -15 -15 -15
-27 -26 -26 -25 -24 -24 -24 -24 -24 -24 -24 -24 -24 -23 -22 -20 -20 -19 -18 -18 -17 -17 -17 -18 -18 -18 -18 -17 -17 -16 -16 -16 -16 -16 -16 -16 -15 -15 -15 -15 -15 -15 -15 -16
-27 -26 -26 -25 -25 -25 -24 -24 -24 -24 -24 -24 -23 -23 -23 -20 -20 -20 -20 -19 -18 -18 -18 -17 -17 -18 -18 -18 -18 -18 -17 -16 -16 -16 -16 -16 -15 -15 -15 -15 -15 -15 -16 -16
-27 -26 -26 -25 -25 -25 -25 -25 -25 -25 -24 -24 -24 -24 -23 -21 -22 -21 -21 -21 -19 -19 -18 -18 -17 -17 -17 -17 -18 -18 -18 -18 -17 -16 -16 -16 -16 -16 -16 -16 -16 -15 -16 -16
-27 -26 -26 -25 -25 -25 -25 -25 -25 -25 -24 -24 -24 -23 -23 -22 -22 -22 -22 -22 -21 -20 -19 -19 -18 -18 -17 -17 -17 -17 -17 -17 -17 -17 -17 -16 -16 -16 -16 -16 -16 -16 -16 -16
-27 -27 -26 -25 -25 -25 -25 -25 -25 -25 -25 -24 -24 -23 -23 -23 -23 -23 -23 -22 -21 -21 -20 -19 -19 -19 -18 -18 -17 -17 -17 -17 -17 -17 -17 -17 -16 -16 -16 -16 -16 -16 -16 -16
-27 -27 -26 -26 -26 -26 -25 -25 -25 -25 -25 -24 -25 -24 -24 -24 -23 -23 -23 -22 -22 -21 -21 -20 -20 -19 -19 -18 -18 -17 -17 -16 -17 -17 -17 -17 -16 -16 -16 -16 -16 -16 -17 -17
-28 -28 -27 -26 -26 -26 -25 -25 -25 -25 -24 -25 -24 -24 -24 -24 -24 -24 -23 -23 -22 -21 -20 -21 -20 -20 -20 -19 -18 -18 -17 -17 -17 -17 -17 -17 -17 -17 -17 -17 -17 -17 -17 -17
-28 -28 -27 -27 -26 -25 -25 -25 -25 -25 -25 -24 -24 -24 -24 -23 -23 -23 -23 -23 -23 -22 -22 -22 -20 -20 -19 -19 -19 -19 -19 -18 -18 -18 -18 -18 -17 -17 -17 -17 -17 -17 -17 -18
-29 -28 -27 -27 -27 -26 -26 -25 -25 -25 -25 -24 -24 -24 -23 -23 -23 -23 -23 -23 -23 -23 -22 -22 -22 -21 -21 -20 -20 -20 -20 -19 -19 -18 -18 -18 -18 -18 -18 -18 -18 -18 -18 -19
-28 -28 -27 -27 -26 -26 -26 -25 -25 -25 -25 -24 -24 -24 -23 -23 -23 -23 -22 -22 -22 -22 -22 -22 -22 -22 -21 -21 -20 -21 -20 -20 -20 -19 -19 -19 -19 -19 -19 -20 -20 -20 -20 -20
-28 -28 -27 -27 -27 -26 -26 -26 -26 -26 -25 -25 -25 -25 -24 -24 -24 -23 -23 -23 -23 -23 -23 -23 -22 -22 -22 -21 -20 -20 -20 -20 -20 -19 -20 -20 -21 -21 -20 -21 -22 -22 -21 -21
-28 -28 -27 -27 -27 -27 -26 -26 -26 -26 -25 -25 -25 -25 -25 -24 -24 -24 -24 -23 -23 -23 -22 -22 -22 -22 -22 -22 -22 -21 -21 -21 -21 -21 -21 -21 -22 -22 -22 -22 -22 -21 -21 -21
-28 -28 -28 -28 -27 -27 -27 -27 -26 -26 -26 -26 -26 -25 -25 -25 -24 -24 -24 -23 -23 -23 -23 -23 -23 -23 -22 -22 -22 -22 -22 -22 -22 -22 -22 -23 -23 -23 -22 -22 -22 -21 -21 -21
-28 -28 -28 -28 -28 -28 -27 -27 -27 -26 -26 -26 -26 -26 -25 -25 -25 -24 -24 -23 -23 -23 -23 -23 -23 -23 -23 -23 -24 -24 -24 -23 -23 -23 -23 -23 -23 -23 -23 -23 -22 -22 -22 -22
-29 -28 -28 -28 -28 -28 -27 -27 -27 -27 -26 -26 -26 -26 -26 -25 -25 -25 -24 -24 -24 -24 -24 -23 -23 -23 -24 -24 -24 -24 -24 -24 -24 -24 -24 -24 -24 -23 -23 -23 -23 -23 -23 -23
-29 -29 -29 -28 -28 -28 -28 -28 -27 -27 -27 -26 -26 -26 -26 -26 -25 -25 -25 -25 -25 -25 -24 -24 -24 -24 -24 -24 -24 -24 -24 -24 -24 -24 -24 -24 -24 -24 -24 -24 -24 -24 -23 -23
-30 -29 -29 -29 -29 -29 -28 -28 -28 -27 -27 -27 -27 -27 -26 -26 -26 -26 -26 -25 -25 -25 -25 -25 -25 -25 -25 -25 -25 -25 -25 -25 -24 -24 -25 -25 -25 -25 -24 -24 -24 -24 -24 -24
-30 -30 -30 -29 -29 -29 -29 -28 -28 -28 -28 -27 -27 -27 -27 -27 -26 -26 -26 -26 -26 -26 -26 -25 -25 -25 -25 -26 -25 -25 -25 -25 -25 -25 -25 -25 -25 -25 -25 -25 -25 -25 -26 -25
Height
5531 5524 5526 5549 5558 5569 5569 5567 5575 5589 5592 5599 5603 5612 5617 5626 5632 5638 5642 5648 5652 5658 5666 5668 5671 5675 5680 5686 5693 5698 5700 5702 5705 5708 5710 5713 5714 5716 5719 5719 5721 5722 5721 5721
5503 5497 5522 5539 5539 5543 5545 5548 5557 5568 5575 5578 5590 5592 5595 5604 5618 5627 5631 5637 5642 5647 5653 5658 5662 5665 5670 5676 5680 5684 5688 5692 5695 5697 5698 5699 5702 5705 5708 5710 5710 5710 5712 5712
5481 5496 5513 5514 5516 5519 5526 5531 5548 5552 5559 5564 5563 5569 5581 5588 5599 5608 5615 5624 5630 5635 5638 5644 5648 5655 5659 5663 5667 5672 5676 5678 5682 5685 5686 5689 5690 5694 5696 5698 5698 5700 5702 5701
5463 5480 5483 5491 5496 5505 5506 5525 5535 5534 5538 5542 5548 5543 5562 5574 5578 5592 5608 5609 5615 5621 5627 5630 5635 5640 5645 5650 5654 5658 5662 5665 5669 5671 5674 5677 5679 5681 5683 5684 5687 5689 5688 5689
5450 5462 5468 5475 5484 5493 5497 5514 5516 5518 5519 5524 5527 5526 5541 5554 5565 5581 5597 5601 5606 5612 5615 5620 5625 5631 5637 5637 5641 5646 5649 5651 5655 5658 5661 5664 5667 5669 5670 5673 5674 5675 5676 5677
5438 5453 5455 5465 5476 5477 5495 5493 5500 5503 5504 5497 5512 5516 5523 5536 5565 5572 5581 5589 5592 5595 5600 5604 5610 5613 5619 5624 5627 5631 5637 5641 5643 5645 5648 5651 5654 5657 5659 5660 5661 5662 5663 5664
5429 5436 5445 5453 5458 5469 5475 5480 5485 5487 5484 5485 5501 5498 5512 5524 5549 5558 5563 5572 5579 5579 5580 5584 5590 5598 5605 5609 5613 5617 5621 5626 5629 5633 5636 5638 5641 5644 5646 5648 5649 5650 5651 5651
5418 5425 5435 5447 5451 5456 5463 5470 5473 5472 5475 5481 5489 5478 5493 5519 5529 5539 5545 5556 5561 5569 5571 5573 5578 5581 5587 5593 5598 5603 5607 5611 5615 5619 5621 5624 5628 5631 5633 5634 5636 5637 5638 5638
5416 5421 5426 5433 5441 5447 5456 5457 5467 5467 5469 5472 5475 5479 5489 5504 5510 5522 5533 5538 5546 5552 5556 5561 5566 5568 5572 5576 5581 5587 5591 5594 5598 5602 5607 5611 5614 5617 5618 5620 5622 5623 5624 5624
5413 5415 5417 5423 5427 5432 5440 5452 5454 5458 5458 5459 5463 5469 5474 5496 5502 5508 5514 5522 5526 5530 5537 5546 5552 5557 5561 5563 5567 5570 5573 5578 5582 5586 5590 5594 5598 5601 5604 5606 5608 5609 5610 5611
5408 5411 5415 5417 5423 5430 5434 5437 5442 5450 5448 5450 5456 5458 5474 5484 5488 5490 5496 5501 5508 5515 5521 5528 5536 5540 5543 5548 5553 5558 5560 5563 5565 5569 5574 5578 5581 5585 5588 5591 5593 5594 5596 5598
5404 5408 5412 5415 5420 5423 5426 5432 5436 5439 5446 5447 5451 5454 5469 5472 5475 5478 5482 5487 5491 5498 5505 5512 5517 5524 5529 5533 5538 5544 5547 5549 5551 5553 5557 5561 5565 5568 5572 5575 5578 5580 5582 5583
5403 5404 5409 5412 5414 5418 5422 5427 5431 5434 5439 5442 5445 5453 5458 5459 5460 5464 5470 5474 5479 5484 5489 5493 5500 5507 5512 5517 5522 5527 5531 5535 5537 5539 5542 5546 5549 5552 5555 5559 5563 5565 5568 5569
5401 5402 5405 5407 5409 5412 5417 5420 5424 5428 5432 5438 5439 5445 5449 5450 5451 5453 5458 5464 5469 5473 5477 5481 5486 5490 5495 5501 5507 5511 5514 5518 5523 5525 5528 5531 5534 5536 5539 5543 5546 5549 5551 5553
5395 5397 5402 5405 5407 5410 5413 5417 5419 5422 5426 5429 5434 5435 5439 5441 5443 5444 5449 5455 5457 5460 5463 5467 5471 5478 5483 5486 5491 5496 5500 5502 5506 5511 5514 5516 5519 5522 5524 5527 5530 5532 5535 5538
5396 5398 5400 5403 5406 5408 5411 5413 5416 5418 5419 5423 5425 5427 5428 5431 5436 5438 5441 5444 5447 5452 5455 5458 5464 5464 5469 5474 5480 5483 5486 5489 5493 5495 5498 5501 5503 5506 5509 5512 5515 5517 5519 5522
5395 5397 5399 5402 5406 5408 5410 5411 5413 5414 5416 5419 5419 5420 5422 5425 5427 5429 5432 5435 5438 5442 5447 5451 5453 5456 5460 5461 5466 5472 5474 5476 5479 5482 5484 5486 5489 5492 5494 5497 5499 5502 5505 5508
5392 5395 5398 5402 5404 5407 5408 5410 5410 5411 5412 5412 5413 5414 5417 5418 5419 5420 5422 5426 5430 5433 5437 5440 5444 5449 5453 5456 5459 5462 5463 5466 5468 5470 5473 5475 5477 5479 5481 5483 5486 5489 5491 5494
5389 5393 5397 5401 5403 5405 5406 5407 5407 5407 5408 5408 5409 5410 5411 5413 5413 5414 5416 5417 5420 5423 5428 5431 5434 5439 5442 5448 5450 5452 5454 5456 5458 5460 5461 5462 5464 5467 5469 5470 5473 5476 5479 5482
5387 5392 5396 5399 5400 5401 5403 5404 5403 5403 5403 5404 5404 5405 5406 5407 5408 5410 5410 5410 5412 5415 5419 5422 5426 5429 5432 5434 5436 5442 5444 5446 5446 5448 5450 5452 5454 5457 5459 5460 5462 5464 5466 5468
5386 5389 5391 5393 5395 5397 5398 5399 5400 5400 5402 5399 5400 5401 5402 5402 5403 5404 5404 5405 5406 5408 5410 5413 5415 5419 5422 5425 5430 5433 5435 5437 5437 5439 5441 5442 5444 5445 5448 5449 5450 5450 5452 5453
5386 5387 5388 5390 5391 5394 5394 5396 5397 5397 5396 5396 5395 5395 5396 5396 5397 5398 5398 5399 5401 5402 5403 5404 5407 5409 5412 5416 5418 5420 5423 5424 5426 5428 5430 5431 5432 5434 5435 5436 5437 5437 5438 5439
5386 5386 5386 5389 5389 5390 5390 5391 5392 5392 5392 5392 5392 5391 5391 5391 5391 5391 5392 5394 5395 5395 5396 5397 5399 5400 5402 5405 5407 5408 5410 5412 5413 5415 5415 5415 5418 5420 5421 5422 5422 5424 5425 5426
5384 5384 5385 5386 5386 5386 5386 5387 5388 5388 5388 5387 5387 5386 5386 5386 5385 5386 5386 5387 5389 5389 5388 5389 5390 5392 5393 5395 5396 5397 5398 5400 5401 5403 5404 5405 5405 5406 5408 5409 5409 5410 5411 5413
5384 5384 5384 5384 5384 5384 5383 5383 5383 5383 5383 5383 5382 5382 5381 5380 5380 5380 5380 5380 5380 5381 5381 5382 5383 5384 5385 5386 5387 5388 5389 5390 5391 5391 5392 5392 5393 5394 5395 5396 5397 5398 5398 5398
5382 5382 5382 5381 5381 5381 5380 5379 5378 5378 5378 5377 5377 5376 5376 5375 5375 5375 5374 5374 5372 5373 5374 5374 5375 5376 5376 5376 5378 5378 5379 5379 5380 5380 5381 5381 5381 5382 5382 5383 5383 5383 5384 5385
Wind_Speed
71 75 79 73 73 78 81 84 82 79 76 70 70 72 72 67 64 62 61 57 58 60 54 55 55 55 55 55 52 51 51 50 49 46 45 45 46 46 44 43 43 43 42 41
67 73 74 68 68 68 77 83 85 81 76 76 74 75 75 72 68 64 63 60 57 58 57 56 56 54 54 51 52 53 52 50 48 48 48 48 49 47 45 44 44 46 45 43
70 65 61 63 63 63 71 81 83 82 74 74 78 81 77 76 70 69 69 64 60 58 60 59 59 55 54 54 54 53 52 52 51 50 51 50 47 46 45 46 48 47 46 46
65 58 52 58 59 61 67 68 74 74 69 76 72 85 79 77 75 69 68 70 67 62 61 61 61 60 56 52 54 54 53 53 53 53 53 51 49 48 47 48 48 47 48 49
60 55 49 54 58 59 59 58 63 67 64 64 68 76 87 79 76 71 65 68 67 64 62 62 62 59 56 56 55 56 57 56 54 54 54 53 52 51 50 48 48 49 50 50
57 59 48 41 41 49 45 52 58 60 62 69 74 69 90 80 73 70 65 63 58 64 66 66 64 64 62 59 59 59 58 57 57 57 55 54 53 54 51 50 51 52 51 50
39 57 43 37 37 46 48 52 52 59 62 65 67 64 86 83 74 72 68 63 63 47 52 71 70 66 62 62 62 61 61 59 59 58 57 56 55 54 53 54 53 52 52 52
23 40 56 49 39 38 43 45 51 57 58 63 59 63 81 80 75 71 70 65 61 61 51 44 45 56 67 69 69 67 66 65 63 61 61 60 59 56 55 56 56 55 54 54
11 22 36 61 49 36 39 38 41 52 56 58 62 64 64 68 66 62 66 67 65 62 65 66 57 49 43 43 45 59 69 70 68 66 63 62 61 59 59 58 56 56 56 54
10 20 21 37 48 57 57 50 43 35 49 58 60 62 61 65 65 63 62 61 65 66 63 63 64 62 56 52 47 44 50 56 66 68 66 64 62 60 60 58 58 58 57 56
20 9 14 22 33 36 49 65 61 47 51 40 38 45 44 55 56 55 57 60 63 61 63 61 59 57 59 57 53 50 48 49 56 61 68 66 65 65 63 62 60 59 59 57
2 9 13 17 25 27 30 40 45 50 60 57 51 51 49 50 54 48 38 34 36 40 55 58 56 59 54 52 56 55 52 48 53 61 64 66 67 69 66 63 59 60 61 57
8 9 8 11 16 21 22 25 29 37 46 46 47 46 28 28 36 40 35 37 38 37 39 46 49 49 49 53 55 57 55 48 51 55 60 64 67 67 64 61 61 63 60 57
9 7 9 8 13 17 21 20 25 29 31 31 32 29 25 28 39 39 39 31 34 38 41 43 53 56 57 59 55 53 51 49 53 57 61 65 67 66 65 63 64 63 61 58
6 5 11 14 15 15 14 17 23 26 28 30 28 30 33 32 29 38 35 39 34 34 39 29 33 46 55 55 58 56 54 54 55 60 63 63 65 65 66 66 66 66 62 57
13 5 14 9 13 19 12 13 11 9 21 28 28 27 30 41 35 31 29 43 50 49 40 41 42 38 37 36 47 49 51 51 51 55 59 61 65 66 68 69 67 61 60 55
11 10 11 12 9 8 12 14 15 15 15 20 26 26 26 34 39 35 34 33 42 50 49 50 42 33 36 40 39 35 38 47 50 52 53 54 57 59 60 60 64 62 55 51
14 15 13 15 13 12 12 12 13 12 17 16 15 16 27 27 28 35 34 39 38 38 44 43 39 42 38 38 43 39 42 37 40 46 50 53 53 55 54 51 51 49 50 51
16 12 15 16 17 17 12 13 11 11 12 12 12 10 9 6 12 22 33 39 41 40 41 42 41 42 44 43 40 43 46 49 49 47 43 43 44 44 45 43 43 46 49 52
13 16 15 18 24 15 15 12 10 11 16 14 13 13 14 15 13 15 18 22 30 36 34 37 44 40 42 41 41 40 45 47 43 43 43 43 41 42 43 45 49 51 53 55
10 11 18 22 21 20 14 13 12 12 15 15 14 16 17 19 19 19 20 18 25 27 29 31 36 42 44 42 46 46 47 45 44 43 42 41 44 46 46 47 48 49 52 56
8 11 11 14 14 17 17 16 12 13 15 18 23 20 21 21 21 21 20 23 21 22 25 28 29 31 35 38 37 36 42 46 46 46 48 49 47 48 49 52 52 52 53 54
8 8 7 9 12 16 19 19 19 21 17 16 18 20 21 22 21 23 24 23 25 24 23 24 28 33 37 37 37 38 40 43 45 46 46 46 46 48 50 49 46 48 49 49
5 6 9 10 11 13 16 16 18 18 16 15 15 16 18 20 21 23 25 25 25 23 23 25 28 33 37 41 43 45 46 46 47 49 49 48 48 49 50 48 45 44 44 45
0 1 3 5 8 11 13 15 17 18 17 17 16 16 16 17 19 21 23 25 25 26 25 25 27 33 37 39 41 44 48 50 51 52 49 47 45 44 42 41 42 42 41 41
5 6 7 9 11 12 13 14 14 17 19 20 20 20 19 19 20 20 20 20 21 22 24 24 27 28 28 30 33 35 37 38 38 38 40 40 41 41 43 43 42 42 43 45
Wind_Direction
252 251 249 249 248 247 248 246 244 243 246 245 243 240 242 239 236 237 239 238 237 241 238 237 237 239 237 236 238 240 241 243 247 251 253 255 255 256 258 258 262 264 265 267
250 248 249 249 250 246 244 246 244 244 244 245 243 241 240 239 235 236 240 241 238 237 242 239 239 239 242 241 239 240 244 246 247 250 251 251 253 255 258 260 262 264 267 271
247 251 253 249 249 247 244 242 244 246 246 245 246 241 240 240 239 232 233 238 240 239 237 240 239 239 240 241 241 242 243 245 247 249 250 251 251 254 258 261 262 266 271 271
244 243 231 238 242 244 244 242 241 244 246 246 246 248 239 239 241 238 232 235 236 237 237 239 243 241 241 240 241 242 244 245 247 247 249 252 253 254 257 260 265 268 268 271
228 218 237 240 243 240 246 240 239 242 243 244 242 246 243 239 238 241 236 237 241 243 242 238 240 245 247 246 244 242 241 244 247 250 251 253 256 257 258 260 263 265 268 269
224 223 223 230 225 240 239 237 237 239 242 244 244 245 244 245 240 240 241 239 242 244 243 242 242 240 240 243 245 247 247 246 248 250 253 255 256 258 260 260 261 263 265 269
231 213 213 222 216 231 230 233 232 235 236 241 244 247 244 245 242 242 242 240 239 246 245 242 239 240 242 243 243 244 247 248 247 249 251 253 255 258 260 261 262 264 266 269
229 216 220 216 209 208 218 237 234 235 235 241 239 243 244 247 247 242 243 243 241 238 246 246 248 247 245 244 243 242 245 247 249 250 250 251 254 257 258 260 263 265 266 267
234 225 223 217 217 209 210 228 234 238 240 249 249 248 249 245 247 246 245 246 244 242 241 244 246 249 246 248 252 252 245 243 246 247 251 254 255 257 258 260 261 264 263 263
218 226 231 218 225 227 224 220 218 228 246 243 250 252 254 248 252 253 249 246 247 246 245 243 246 249 252 254 256 258 248 251 252 249 249 250 253 254 257 257 259 261 262 260
196 234 234 223 224 230 230 231 230 232 235 233 243 244 255 251 253 256 253 250 247 248 248 247 245 246 248 250 249 256 252 253 251 254 250 251 254 256 256 255 257 259 259 257
146 130 187 212 220 234 237 238 236 239 234 253 259 252 259 257 250 248 247 249 245 246 248 247 248 247 245 238 244 246 252 254 250 247 248 248 251 252 252 252 254 256 255 253
165 141 175 200 214 206 224 228 236 241 241 252 258 257 245 242 237 247 243 244 242 232 225 226 233 234 232 234 234 241 243 251 251 247 245 245 247 247 247 248 251 252 251 250
209 147 175 187 184 176 220 224 232 227 232 241 252 241 240 239 242 249 246 245 244 235 233 232 229 229 227 232 236 236 235 239 248 246 242 241 242 244 246 248 249 248 248 248
186 253 216 187 198 184 207 236 236 239 241 243 249 252 245 240 251 246 235 230 252 231 233 239 233 231 229 231 232 235 238 237 240 245 246 247 246 246 247 247 247 247 246 247
225 185 206 224 205 207 232 228 213 239 233 240 247 245 244 234 242 244 248 241 244 248 246 254 232 241 233 228 231 231 233 238 243 244 247 249 248 246 246 247 250 249 247 247
212 199 198 219 224 233 255 256 260 260 265 243 241 232 242 242 239 249 249 251 249 249 253 256 261 250 253 257 259 261 254 242 242 244 244 246 249 250 250 251 251 251 249 246
211 217 219 227 223 233 228 239 250 242 243 249 240 232 239 247 246 240 239 242 244 247 248 249 250 254 253 249 255 256 253 255 256 254 251 251 251 251 251 248 246 245 246 247
190 224 244 229 233 228 245 243 241 245 245 245 244 258 261 251 252 245 250 257 251 251 249 248 246 247 251 252 247 252 253 252 250 250 255 260 262 259 253 249 251 255 257 257
175 204 219 233 238 236 231 246 269 271 264 266 272 274 267 260 255 253 263 258 246 247 250 257 248 250 247 252 255 258 257 259 263 264 266 268 266 270 267 263 260 264 265 258
179 205 224 218 229 238 254 259 265 271 262 269 263 256 257 254 255 257 264 265 244 242 244 247 244 244 246 244 243 247 249 255 262 264 267 271 271 271 270 270 270 269 266 261
193 190 194 206 222 237 239 246 252 258 255 262 263 264 261 264 261 259 257 263 263 251 248 254 253 245 244 245 248 256 258 254 257 260 266 267 266 266 268 271 268 263 261 258
208 229 224 223 232 242 249 253 259 257 256 267 266 260 260 263 264 266 261 256 257 260 254 248 251 252 247 247 247 249 251 257 259 260 266 268 268 268 266 260 259 258 258 257
222 224 236 233 234 240 246 251 254 258 249 260 272 272 268 265 265 265 265 262 257 252 255 257 254 251 246 246 246 249 254 258 261 265 264 266 265 262 261 260 257 257 257 257
343 264 251 253 260 259 257 261 264 267 267 264 265 269 269 271 268 265 264 264 264 260 251 246 245 243 243 245 246 248 250 251 255 257 257 257 255 252 252 258 262 263 263 263
303 314 312 306 296 291 286 277 276 277 275 272 271 269 269 269 268 264 264 263 265 267 261 254 249 247 242 242 244 247 249 251 252 253 255 259 261 264 267 266 265 265 264 263